EW7772 Weather Reports


time (UTC)temp
C
wind
direction
speed
KPH
gust
KPH
rain 1hr
cm
rain 24hr
cm
rain mn
cm
humidity
%
barometer
mb
20260509070011 13 77 0.0 3.2 0.00 0.00 0.00 74 1017.7
20260509064505 13 74 0.0 4.8 0.00 0.00 0.00 74 1017.7
20260509063002 12 71 0.0 6.4 0.00 0.00 0.00 76 1017.7
20260509061606 12 74 0.0 3.2 0.00 0.00 0.00 78 1017.7
20260509060057 11 65 0.0 1.6 0.00 0.00 0.00 81 1017.7
20260509054601 11 65 0.0 1.6 0.00 0.00 0.00 82 1017.8
20260509053058 10 65 0.0 0.0 0.00 0.00 0.00 84 1017.7
20260509051552 9 65 0.0 0.0 0.00 0.00 0.00 90 1017.6
20260509050050 8 65 0.0 0.0 0.00 0.00 0.00 91 1017.6
20260509044549 7 65 0.0 0.0 0.00 0.00 0.00 91 1017.6
20260509043048 7 65 0.0 0.0 0.00 0.00 0.00 91 1017.5
20260509041614 7 65 0.0 0.0 0.00 0.00 0.00 92 1017.5
20260509040047 7 65 0.0 0.0 0.00 0.00 0.00 92 1017.5
20260509034548 7 65 0.0 0.0 0.00 0.00 0.00 91 1017.6
20260509033047 6 65 0.0 0.0 0.00 0.00 0.00 91 1017.5
20260509031546 7 65 0.0 0.0 0.00 0.00 0.00 91 1017.6
20260509030047 7 65 0.0 0.0 0.00 0.00 0.00 91 1017.8
20260509024544 7 65 0.0 0.0 0.00 0.00 0.00 90 1017.7
20260509023100 7 65 0.0 0.0 0.00 0.00 0.00 90 1017.6
20260509021541 7 65 0.0 0.0 0.00 0.00 0.00 90 1017.6
20260509020051 7 65 0.0 0.0 0.00 0.00 0.00 89 1017.6
20260509014540 7 65 0.0 0.0 0.00 0.00 0.00 89 1017.6
20260509013044 7 65 0.0 0.0 0.00 0.00 0.00 89 1017.4
20260509011537 7 65 0.0 0.0 0.00 0.00 0.00 89 1017.4
20260509010039 8 65 0.0 0.0 0.00 0.00 0.00 88 1017.5
20260509004535 8 65 0.0 0.0 0.00 0.00 0.00 88 1017.4
20260509003032 8 65 0.0 0.0 0.00 0.00 0.00 87 1017.4
20260509001530 8 65 0.0 0.0 0.00 0.00 0.00 86 1017.4
20260509000029 8 65 0.0 0.0 0.00 0.00 0.00 86 1017.4
20260508234530 9 65 0.0 0.0 0.00 0.00 0.00 86 1017.5
20260508233024 9 65 0.0 0.0 0.00 0.00 0.00 85 1017.5
20260508231523 9 65 0.0 0.0 0.00 0.00 0.00 85 1017.5
20260508230034 9 65 0.0 0.0 0.00 0.00 0.00 85 1017.5
20260508224526 10 65 0.0 0.0 0.00 0.00 0.00 84 1017.5
20260508223026 10 65 0.0 0.0 0.00 0.00 0.00 83 1017.6
20260508221518 10 65 0.0 0.0 0.00 0.00 0.00 82 1017.6
20260508220023 10 65 0.0 0.0 0.00 0.00 0.00 82 1017.6
20260508214525 10 65 0.0 0.0 0.00 0.00 0.00 81 1017.6
20260508213015 11 65 0.0 0.0 0.00 0.00 0.00 80 1017.4
20260508211529 11 65 0.0 0.0 0.00 0.00 0.00 78 1017.4
20260508210014 12 65 0.0 0.0 0.00 0.00 0.00 76 1017.3
20260508204515 12 65 0.0 0.0 0.00 0.00 0.00 75 1017.3
20260508203013 12 65 0.0 0.0 0.00 0.00 0.00 74 1017.3
20260508201515 13 65 0.0 0.0 0.00 0.00 0.00 73 1017.2
20260508200012 13 65 0.0 0.0 0.00 0.00 0.00 72 1017.1
20260508194525 13 65 0.0 0.0 0.00 0.00 0.00 70 1016.9
20260508193011 14 65 0.0 1.6 0.00 0.00 0.00 69 1016.8
20260508191511 14 65 0.0 0.0 0.00 0.00 0.00 69 1016.6
20260508190013 15 65 0.0 0.0 0.00 0.00 0.00 67 1016.4
20260508184510 15 65 0.0 3.2 0.00 0.00 0.00 65 1016.1
20260508183019 16 65 0.0 4.8 0.00 0.00 0.00 64 1015.8
20260508181510 16 64 1.6 6.4 0.00 0.00 0.00 63 1015.6
20260508180013 16 40 1.6 6.4 0.00 0.00 0.00 62 1015.6
20260508174508 16 82 0.0 3.2 0.00 0.00 0.00 62 1015.5
20260508173007 17 90 0.0 4.8 0.00 0.00 0.00 62 1015.3
20260508171508 17 109 0.0 3.2 0.00 0.00 0.00 61 1015.1
20260508170007 17 36 0.0 6.4 0.00 0.00 0.00 61 1015.1
20260508164511 18 85 1.6 8.0 0.00 0.00 0.00 59 1015.1
20260508163010 18 76 0.0 3.2 0.00 0.00 0.00 59 1015.0
20260508161510 18 80 0.0 6.4 0.00 0.00 0.00 58 1014.9
20260508160006 18 86 0.0 4.8 0.00 0.00 0.00 58 1015.0
20260508154504 18 77 1.6 4.8 0.00 0.00 0.00 58 1015.1
20260508153003 19 97 0.0 6.4 0.00 0.00 0.00 57 1015.1
20260508151501 20 83 0.0 3.2 0.00 0.00 0.00 55 1015.3
20260508150100 18 87 0.0 3.2 0.00 0.00 0.00 58 1015.3
20260508144609 18 85 0.0 3.2 0.00 0.00 0.00 59 1015.5
20260508143105 20 72 0.0 4.8 0.00 0.00 0.00 54 1015.6
20260508141604 20 280 0.0 3.2 0.00 0.00 0.00 55 1015.7
20260508140053 18 174 0.0 3.2 0.00 0.00 0.00 55 1015.9
20260508134616 18 96 0.0 1.6 0.00 0.00 0.00 56 1016.1
20260508133058 20 346 0.0 3.2 0.00 0.00 0.00 53 1016.1
20260508131551 19 253 0.0 3.2 0.00 0.00 0.00 52 1016.2
20260508130047 19 67 0.0 3.2 0.00 0.00 0.00 58 1016.3
20260508124544 18 68 0.0 4.8 0.00 0.03 0.00 62 1016.4
20260508123049 18 49 1.6 4.8 0.00 0.03 0.00 58 1016.6
20260508121546 18 242 0.0 3.2 0.00 0.03 0.00 57 1016.6
20260508120042 17 33 0.0 4.8 0.00 0.03 0.00 62 1016.7
20260508114541 18 57 0.0 3.2 0.00 0.03 0.00 56 1016.7
20260508113040 18 280 0.0 3.2 0.00 0.03 0.00 56 1016.8
20260508111539 18 78 0.0 3.2 0.00 0.03 0.00 60 1016.9
20260508110034 17 94 0.0 4.8 0.00 0.03 0.00 62 1016.9
20260508104534 17 105 0.0 4.8 0.00 0.03 0.00 64 1017.2
20260508103035 16 85 0.0 3.2 0.00 0.03 0.00 65 1017.2
20260508101534 16 80 0.0 1.6 0.00 0.03 0.00 63 1017.3
20260508100030 16 74 0.0 3.2 0.00 0.03 0.00 60 1017.4
20260508094528 16 50 1.6 4.8 0.00 0.03 0.00 66 1017.5
20260508093027 16 64 1.6 4.8 0.00 0.03 0.00 66 1017.6
20260508091525 16 88 0.0 4.8 0.00 0.03 0.00 70 1017.6
20260508090039 15 86 0.0 4.8 0.00 0.03 0.00 72 1017.6
20260508084519 15 84 0.0 4.8 0.00 0.05 0.00 74 1017.6
20260508083020 14 30 1.6 6.4 0.00 0.05 0.00 73 1017.6
20260508081514 13 81 0.0 4.8 0.00 0.05 0.00 75 1017.7
20260508080013 13 94 0.0 4.8 0.00 0.05 0.00 76 1017.7
20260508074512 13 99 0.0 3.2 0.00 0.15 0.00 77 1017.7
20260508073009 12 76 0.0 3.2 0.00 0.15 0.00 78 1017.7
20260508071508 12 75 0.0 1.6 0.00 0.15 0.00 78 1017.7